Regional Weather Roundup
Issued by NWS

Home | Current Version | Previous Version | Graphics & Text | Print | Product List | Glossary Off
Versions: 1 2 3 4 5 6 7 8 9 10 11 12 13 14 15 16 17 18 19 20 21 22 23 24 25 26 27 28 29 30 31 32 33 34 35 36 37 38 39 40 41 42 43 44 45 46 47 48 49 50

000
ASUS43 KTOP 191959
RWRKS

WEATHER ROUNDUP FOR KANSAS
NATIONAL WEATHER SERVICE GOODLAND KS
300 PM CDT FRI SEP 19 2014

NOTE:  "FAIR" INDICATES FEW OR NO CLOUDS BELOW 12,000 FEET WITH NO
SIGNIFICANT WEATHER AND/OR OBSTRUCTIONS TO VISIBILITY.

KSZ001>006-013>018-027>032-041>047-192100-
NORTHWEST KANSAS

CITY           SKY/WX    TMP DP  RH WIND       PRES   REMARKS
GOODLAND       SUNNY     88  56  33 S21G28    29.91F
HAYS           SUNNY     90  63  40 SW16G28   29.90F
HILL CITY      SUNNY     91  60  35 S17G26    29.88F
RUSSELL        SUNNY     88  62  41 S18G26    29.89F
$$

KSZ061>065-074>080-084>089-192100-
SOUTHWEST KANSAS

CITY           SKY/WX    TMP DP  RH WIND       PRES   REMARKS
DODGE CITY     SUNNY     87  59  38 S18G31    29.95F
ELKHART          N/A     80  61  52 S15         N/A
GARDEN CITY    SUNNY     86  59  39 S23G31    29.93F
GREAT BEND     SUNNY     90  61  37 S16G26    29.91F
LIBERAL        MOSUNNY   88  61  40 S20G25    29.97F
PRATT          SUNNY     88  55  33 S17G25    29.95F
$$

KSZ066>073-081>083-090>101-192100-
SOUTHEAST KANSAS

CITY           SKY/WX    TMP DP  RH WIND       PRES   REMARKS
CHANUTE        CLOUDY    74  69  85 S10       30.01F
COFFEYVILLE    CLOUDY    74  69  85 S6        30.00F
HUTCHINSON     MOSUNNY   91  64  40 S14G24    29.93F
NEWTON         MOSUNNY   88  64  45 S15G21    29.96F
PARSONS        CLOUDY    74  70  87 S5        30.02S
WICHITA INTL   MOSUNNY   90  62  39 S12G21    29.93F
WICHITA JABRA  MOSUNNY   89  64  43 S16       29.94F
WINFIELD       MOSUNNY   84  69  60 SE13G18   29.97F
$$

KSZ007>012-019>026-033>040-048>060-102>105-192100-
NORTHEAST KANSAS

CITY           SKY/WX    TMP DP  RH WIND       PRES   REMARKS
CONCORDIA      SUNNY     87  67  51 S17       29.90F
EMPORIA        SUNNY     77  69  76 SE14      29.97F
LAWRENCE       PTSUNNY   76  67  73 S10       29.97F HAZE
MANHATTAN      MOSUNNY   88  69  53 S12       29.91F
OLATHE IND     PTSUNNY   77  68  73 S7        29.99F
OLATHE EXE     PTSUNNY   76  68  76 S8        29.98F
SALINA         SUNNY     89  67  47 S14G29    29.90F
TOPEKA BILLARD MOSUNNY   80  70  71 S14G22    29.95F
TOPEKA FORBES  MOSUNNY   79  68  69 S13       29.96F
$$



USA.gov is the U.S. government's official web portal to all federal, state and local government web resources and services.